TimeCST,TemperatureF,Dew PointF,Humidity,Sea Level PressureIn,VisibilityMPH,Wind Direction,Wind SpeedMPH,Gust SpeedMPH,PrecipitationIn,Events,Conditions,WindDirDegrees,DateUTC
12:15 AM,71.4,65.8,82,29.97,10.0,Calm,Calm,-,N/A,,Clear,0,2013-11-05 06:15:00
12:35 AM,70.7,65.7,84,29.97,10.0,East,3.5,-,N/A,,Clear,90,2013-11-05 06:35:00
12:55 AM,70.2,65.7,86,29.96,10.0,ESE,3.5,-,N/A,,Clear,110,2013-11-05 06:55:00
1:15 AM,70.2,65.8,86,29.96,10.0,East,3.5,-,N/A,,Scattered Clouds,100,2013-11-05 07:15:00
1:35 AM,69.4,65.7,88,29.96,10.0,ESE,3.5,-,N/A,,Scattered Clouds,110,2013-11-05 07:35:00
1:55 AM,68.9,65.5,89,29.95,10.0,East,3.5,-,N/A,,Clear,100,2013-11-05 07:55:00
2:15 AM,69.1,65.8,89,29.95,10.0,East,3.5,-,N/A,,Mostly Cloudy,100,2013-11-05 08:15:00
2:35 AM,69.4,66.2,89,29.95,10.0,Calm,Calm,-,N/A,,Overcast,0,2013-11-05 08:35:00
2:55 AM,70.2,66.2,87,29.93,10.0,Calm,Calm,-,N/A,,Overcast,0,2013-11-05 08:55:00
3:15 AM,70.0,66.2,88,29.92,10.0,ESE,3.5,-,N/A,,Overcast,110,2013-11-05 09:15:00
3:35 AM,69.4,66.0,89,29.92,10.0,East,4.6,-,N/A,,Scattered Clouds,90,2013-11-05 09:35:00
3:55 AM,68.9,65.8,90,29.92,10.0,East,3.5,-,N/A,,Scattered Clouds,100,2013-11-05 09:55:00
4:15 AM,68.2,65.7,92,29.91,10.0,East,3.5,-,N/A,,Clear,100,2013-11-05 10:15:00
4:35 AM,68.0,65.5,92,29.91,10.0,East,3.5,-,N/A,,Clear,90,2013-11-05 10:35:00
4:55 AM,67.5,65.3,93,29.92,10.0,Calm,Calm,-,N/A,,Clear,0,2013-11-05 10:55:00
5:15 AM,67.6,65.7,93,29.92,10.0,Calm,Calm,-,N/A,,Clear,0,2013-11-05 11:15:00
5:35 AM,67.3,65.5,94,29.92,10.0,Calm,Calm,-,N/A,,Clear,0,2013-11-05 11:35:00
5:55 AM,66.2,64.6,94,29.92,10.0,East,3.5,-,N/A,,Clear,100,2013-11-05 11:55:00
6:15 AM,66.2,64.8,95,29.92,10.0,East,3.5,-,N/A,,Clear,90,2013-11-05 12:15:00
6:35 AM,66.2,64.8,95,29.93,10.0,East,3.5,-,N/A,,Clear,90,2013-11-05 12:35:00
6:55 AM,65.7,64.6,96,29.93,7.0,East,3.5,-,N/A,,Clear,90,2013-11-05 12:55:00
7:15 AM,66.0,64.8,96,29.94,7.0,East,3.5,-,N/A,,Clear,90,2013-11-05 13:15:00
7:35 AM,66.4,65.5,97,29.94,7.0,Calm,Calm,-,N/A,,Clear,0,2013-11-05 13:35:00
7:55 AM,68.0,67.1,97,29.95,10.0,East,3.5,-,N/A,,Clear,100,2013-11-05 13:55:00
8:15 AM,70.2,68.4,94,29.96,10.0,East,3.5,-,N/A,,Clear,100,2013-11-05 14:15:00
8:35 AM,73.8,69.1,85,29.96,10.0,ESE,5.8,-,N/A,,Clear,120,2013-11-05 14:35:00
8:55 AM,78.1,69.8,76,29.97,10.0,SE,11.5,-,N/A,,Clear,130,2013-11-05 14:55:00
9:15 AM,81.0,69.8,69,29.97,10.0,South,6.9,-,N/A,,Scattered Clouds,190,2013-11-05 15:15:00
9:35 AM,81.7,70.3,68,29.97,10.0,SE,11.5,-,N/A,,Scattered Clouds,130,2013-11-05 15:35:00
9:55 AM,82.8,70.2,66,29.97,10.0,SE,15.0,21.9,N/A,,Mostly Cloudy,140,2013-11-05 15:55:00
10:15 AM,-9999,-9999,N/A,-9999,-9999.0,North,-9999.0,-,N/A,,Unknown,0,2013-11-05 16:15:00
10:35 AM,82.6,69.6,65,29.97,-9999.0,SSE,13.8,20.7,0.03,,Overcast,150,2013-11-05 16:35:00
10:55 AM,84.6,69.4,60,29.96,10.0,SSE,12.7,-,0.03,,Mostly Cloudy,160,2013-11-05 16:55:00
11:15 AM,86.0,67.3,53,29.96,10.0,South,17.3,-,N/A,,Mostly Cloudy,180,2013-11-05 17:15:00
11:35 AM,87.1,66.9,51,29.94,10.0,SE,15.0,24.2,N/A,,Scattered Clouds,140,2013-11-05 17:35:00
11:55 AM,88.2,66.4,48,29.94,10.0,SSE,16.1,20.7,N/A,,Scattered Clouds,160,2013-11-05 17:55:00
12:15 PM,87.3,66.7,50,29.93,10.0,South,15.0,19.6,N/A,,Scattered Clouds,170,2013-11-05 18:15:00
12:35 PM,88.2,65.3,47,29.92,10.0,SSE,11.5,23.0,N/A,,Scattered Clouds,160,2013-11-05 18:35:00
12:55 PM,87.3,65.7,48,29.91,10.0,SSE,12.7,18.4,N/A,,Mostly Cloudy,160,2013-11-05 18:55:00
1:15 PM,87.3,66.4,50,29.90,10.0,SE,10.4,18.4,N/A,,Overcast,130,2013-11-05 19:15:00
1:35 PM,87.3,66.2,49,29.89,10.0,SSE,10.4,-,N/A,,Mostly Cloudy,150,2013-11-05 19:35:00
1:55 PM,88.7,66.6,48,29.88,10.0,ESE,10.4,20.7,N/A,,Mostly Cloudy,120,2013-11-05 19:55:00
2:15 PM,87.8,67.6,51,29.88,10.0,SE,11.5,16.1,N/A,,Scattered Clouds,130,2013-11-05 20:15:00
2:35 PM,87.6,68.9,54,29.87,10.0,ESE,12.7,17.3,N/A,,Scattered Clouds,120,2013-11-05 20:35:00
2:55 PM,87.1,70.3,57,29.87,10.0,ESE,15.0,21.9,N/A,,Scattered Clouds,120,2013-11-05 20:55:00
3:15 PM,85.5,70.9,62,29.87,10.0,SE,13.8,18.4,N/A,,Mostly Cloudy,130,2013-11-05 21:15:00
3:35 PM,85.5,70.9,62,29.87,10.0,SE,10.4,16.1,N/A,,Mostly Cloudy,130,2013-11-05 21:35:00
3:55 PM,85.3,71.8,64,29.87,10.0,ESE,10.4,18.4,N/A,,Overcast,110,2013-11-05 21:55:00
4:15 PM,84.6,71.6,65,29.87,10.0,SE,9.2,16.1,N/A,,Overcast,130,2013-11-05 22:15:00
4:35 PM,84.6,71.6,65,29.87,10.0,ESE,11.5,-,N/A,,Overcast,120,2013-11-05 22:35:00
4:55 PM,84.4,71.2,65,29.87,10.0,SE,11.5,-,N/A,,Overcast,130,2013-11-05 22:55:00
5:15 PM,83.8,71.2,66,29.87,10.0,SE,9.2,-,N/A,,Overcast,130,2013-11-05 23:15:00
5:35 PM,83.5,70.9,66,29.88,10.0,SE,10.4,-,N/A,,Scattered Clouds,130,2013-11-05 23:35:00
5:55 PM,82.4,71.1,68,29.88,10.0,ESE,10.4,16.1,N/A,,Clear,120,2013-11-05 23:55:00
6:15 PM,81.9,71.1,70,29.89,10.0,SE,11.5,17.3,N/A,,Clear,130,2013-11-06 00:15:00
6:35 PM,81.0,71.2,72,29.89,10.0,SE,8.1,18.4,N/A,,Clear,130,2013-11-06 00:35:00
6:55 PM,80.6,71.1,73,29.90,10.0,SE,11.5,16.1,N/A,,Clear,130,2013-11-06 00:55:00
7:15 PM,79.9,71.6,76,29.91,10.0,SE,11.5,17.3,N/A,,Clear,130,2013-11-06 01:15:00
7:35 PM,79.2,72.0,78,29.92,10.0,SE,13.8,18.4,N/A,,Clear,130,2013-11-06 01:35:00
7:55 PM,79.0,72.5,80,29.92,10.0,SE,10.4,-,N/A,,Clear,130,2013-11-06 01:55:00
8:15 PM,78.8,72.7,81,29.93,10.0,SE,9.2,-,N/A,,Clear,130,2013-11-06 02:15:00
8:35 PM,78.3,72.7,83,29.94,10.0,SE,9.2,-,N/A,,Clear,130,2013-11-06 02:35:00
8:55 PM,77.9,72.7,84,29.95,10.0,SE,6.9,-,N/A,,Clear,130,2013-11-06 02:55:00
9:15 PM,77.5,72.9,85,29.95,10.0,SE,6.9,-,N/A,,Scattered Clouds,130,2013-11-06 03:15:00
9:35 PM,77.0,72.9,87,29.96,10.0,SE,5.8,-,N/A,,Scattered Clouds,130,2013-11-06 03:35:00
9:55 PM,77.0,73.2,88,29.96,10.0,SE,5.8,-,N/A,,Scattered Clouds,130,2013-11-06 03:55:00
10:15 PM,76.6,73.0,89,29.96,10.0,SE,4.6,-,N/A,,Mostly Cloudy,130,2013-11-06 04:15:00
10:35 PM,76.1,73.0,90,29.96,10.0,SE,5.8,-,N/A,,Scattered Clouds,130,2013-11-06 04:35:00
10:55 PM,76.1,73.2,91,29.96,10.0,ESE,5.8,-,N/A,,Scattered Clouds,120,2013-11-06 04:55:00
11:15 PM,75.6,73.0,92,29.97,10.0,SE,3.5,-,N/A,,Clear,130,2013-11-06 05:15:00
11:35 PM,75.2,72.9,92,29.97,10.0,ESE,3.5,-,N/A,,Clear,110,2013-11-06 05:35:00
11:55 PM,74.5,72.5,94,29.97,7.0,Calm,Calm,-,N/A,,Scattered Clouds,0,2013-11-06 05:55:00